Location: Gebenbach
(49.5378°N, 11.8735°E)
Time: 03:37:21
(UTC+00:00)

DEBRIS - Pass Details

Date: 29 October 2020
Orbit: 307 x 15221 km, 49.4° (Epoch: 23 November)

Event Time Altitude Azimuth Distance (km) Brightness Sun altitude
Rises 17:26:26 0° 236° (SW) 12,556 10.8 -15.3°
Reaches altitude 10° 17:39:41 10° 236° (WSW) 8,744 9.7 -17.5°
Maximum altitude 18:00:08 66° 161° (SSE) 1,535 4.8 -20.8°
Enters shadow 18:02:37 38° 93° (E) 1,563 4.5 -21.2°
